Content
SEND FEEDBACK

Daily
Averages
Monthly
Summary
United States of America

ELLIJAY, GEORGIA


Home > North America > United States > Georgia
Elevation: 130 feet     Latitude: 34 42N     Longitude: 084 29W

WEATHER
 
SELECT A DAY
Number of Records: 63,117;   Date Range: 10/11/11 - 8/29/14
 
SHARE

PRINT THIS DATA

[ ← Previous Day ]
WEATHER ALMANAC - JANUARY 31, 2013
[ Next Day → ]
[ °C ]   °F
Weather ElementAverageHighLow
Temperature38.8 °F46.4 °F (2:35 pm)32 °F (7:55 am)
Dewpoint17.5 °F28.4 °F (12:35 am)5 °F (3:55 pm)
Humidity44.3 %64 % (8:15 am)18 % (3:55 pm)
Barometer30.03 in30.13 in (9:15 pm)29.81 in (12:35 am)
Wind Speed8.8 mph18.4 mph (1:15 am)
Wind Gust28.8 mph (12:55 am)
Weather ElementAverage
Visibility10 mi
Wind DirectionWNW (281.6 °)

Weather ElementTotal
Precipitation---
Heating Degree Days25.8 (Base 65)
Averaged from 70 records on January 31, 2013
WEATHER CONDITIONS BREAKOUT
WIND DIRECTION BREAKOUT
WEATHER BY HOUR - JANUARY 31, 2013
[ °C ]   °F
Local TimeTemperatureDewpointHumidityBarometerVisibilityWind DirectionWind SpeedGust SpeedPrecipitationEventsConditions
12:35 AM41.0 °F28.4 °F61 %29.81 in10.0 miWNW (290°)11.5 mph18.4 mphOvercast
12:55 AM41.0 °F26.6 °F57 %29.82 in10.0 miWest (280°)12.7 mph28.8 mphOvercast
1:15 AM39.2 °F24.8 °F56 %29.83 in10.0 miWNW (290°)18.4 mph28.8 mphScattered Clouds
1:35 AM37.4 °F23.0 °F56 %29.84 in10.0 miWNW (290°)15.0 mph28.8 mphClear
1:55 AM37.4 °F21.2 °F52 %29.87 in10.0 miWNW (300°)13.8 mph27.6 mphScattered Clouds
2:15 AM35.6 °F19.4 °F52 %29.87 in10.0 miWNW (300°)12.7 mph25.3 mphMostly Cloudy
2:35 AM35.6 °F19.4 °F52 %29.89 in10.0 miWNW (290°)12.7 mph21.9 mphMostly Cloudy
2:55 AM35.6 °F19.4 °F52 %29.89 in10.0 miWNW (300°)10.4 mph21.9 mphOvercast
3:15 AM35.6 °F19.4 °F52 %29.91 in10.0 miWNW (290°)9.2 mph19.6 mphOvercast
3:35 AM35.6 °F21.2 °F56 %29.92 in10.0 miWNW (290°)6.9 mphOvercast
3:55 AM35.6 °F21.2 °F56 %29.92 in10.0 miWNW (290°)4.6 mphOvercast
4:15 AM35.6 °F21.2 °F56 %29.92 in10.0 miWNW (290°)5.8 mphOvercast
4:35 AM35.6 °F21.2 °F56 %29.92 in10.0 miWNW (290°)9.2 mphOvercast
4:55 AM35.6 °F21.2 °F56 %29.93 in10.0 miWNW (290°)9.2 mphMostly Cloudy
5:15 AM33.8 °F19.4 °F56 %29.94 in10.0 miWNW (300°)13.8 mph20.7 mphMostly Cloudy
5:35 AM33.8 °F17.6 °F52 %29.95 in10.0 miWNW (300°)12.7 mph20.7 mphMostly Cloudy
5:55 AM33.8 °F17.6 °F52 %29.96 in10.0 miWNW (300°)11.5 mph18.4 mphScattered Clouds
6:15 AM33.8 °F17.6 °F52 %29.98 in10.0 miWNW (290°)9.2 mphScattered Clouds
6:35 AM33.8 °F19.4 °F56 %29.99 in10.0 miWest (280°)6.9 mphMostly Cloudy
6:55 AM33.8 °F19.4 °F56 %29.99 in10.0 miWest (280°)8.1 mphMostly Cloudy
7:15 AM33.8 °F19.4 °F56 %29.99 in10.0 miWNW (300°)5.8 mphScattered Clouds
7:55 AM32.0 °F19.4 °F60 %30.01 in10.0 miWNW (290°)8.1 mphClear
8:15 AM32.0 °F21.2 °F64 %30.02 in10.0 miWNW (290°)5.8 mphClear
8:35 AM33.8 °F19.4 °F56 %30.03 in10.0 miWNW (290°)9.2 mphClear
8:55 AM33.8 °F19.4 °F56 %30.04 in10.0 miWNW (300°)10.4 mph17.3 mphClear
9:15 AM33.8 °F19.4 °F56 %30.04 in10.0 miWNW (300°)10.4 mph18.4 mphClear
9:35 AM33.8 °F19.4 °F56 %30.04 in10.0 miWNW (290°)10.4 mph21.9 mphClear
9:55 AM35.6 °F19.4 °F52 %30.05 in10.0 miWNW (290°)9.2 mph17.3 mphClear
10:15 AM37.4 °F21.2 °F52 %30.05 in10.0 miWNW (300°)12.7 mph16.1 mphClear
10:35 AM37.4 °F19.4 °F48 %30.06 in10.0 miWNW (300°)8.1 mph17.3 mphClear
10:55 AM37.4 °F19.4 °F48 %30.06 in10.0 miWNW (290°)12.7 mph19.6 mphClear
11:15 AM39.2 °F19.4 °F45 %30.08 in10.0 miWNW (300°)13.8 mph17.3 mphClear
11:35 AM41.0 °F19.4 °F42 %30.08 in10.0 miWest (280°)10.4 mph16.1 mphClear
11:55 AM41.0 °F19.4 °F42 %30.08 in10.0 miWNW (290°)11.5 mph18.4 mphClear
12:15 PM42.8 °F19.4 °F39 %30.09 in10.0 miWNW (290°)11.5 mph21.9 mphClear
12:35 PM42.8 °F17.6 °F36 %30.09 in10.0 miWest (270°)9.2 mph21.9 mphScattered Clouds
12:55 PM44.6 °F19.4 °F37 %30.09 in10.0 miWNW (300°)13.8 mph18.4 mphScattered Clouds
1:15 PM44.6 °F17.6 °F34 %30.08 in10.0 miWNW (290°)5.8 mph17.3 mphClear
1:35 PM44.6 °F15.8 °F31 %30.08 in10.0 miWNW (300°)11.5 mph24.2 mphClear
1:55 PM44.6 °F15.8 °F31 %30.08 in10.0 miWNW (290°)10.4 mph19.6 mphClear
2:15 PM44.6 °F14.0 °F29 %30.09 in10.0 miWest (280°)11.5 mph21.9 mphScattered Clouds
2:35 PM46.4 °F12.2 °F25 %30.08 in10.0 miWNW (300°)11.5 mph18.4 mphClear
2:55 PM46.4 °F10.4 °F23 %30.07 in10.0 miNW (320°)9.2 mph21.9 mphClear
3:15 PM46.4 °F6.8 °F20 %30.08 in10.0 miWNW (290°)11.5 mph18.4 mphClear
3:35 PM46.4 °F8.6 °F22 %30.08 in10.0 miWNW (300°)10.4 mph18.4 mphClear
3:55 PM46.4 °F5.0 °F18 %30.07 in10.0 miWNW (300°)12.7 mph20.7 mphClear
4:15 PM46.4 °F5.0 °F18 %30.07 in10.0 miWNW (300°)9.2 mph24.2 mphClear
4:35 PM46.4 °F5.0 °F18 %30.07 in10.0 miWNW (300°)13.8 mph26.5 mphClear
4:55 PM46.4 °F8.6 °F22 %30.08 in10.0 miWNW (300°)5.8 mph18.4 mphClear
5:15 PM44.6 °F8.6 °F23 %30.07 in10.0 miWNW (290°)6.9 mph17.3 mphClear
5:35 PM44.6 °F14.0 °F29 %30.07 in10.0 miWest (280°)4.6 mphClear
5:55 PM42.8 °F14.0 °F31 %30.07 in10.0 miWest (270°)5.8 mphClear
6:15 PM41.0 °F17.6 °F39 %30.08 in10.0 miWest (280°)4.6 mphClear
6:35 PM41.0 °F17.6 °F39 %30.09 in10.0 miWest (280°)4.6 mphClear
6:55 PM39.2 °F15.8 °F39 %30.09 in10.0 miWest (260°)4.6 mphClear
7:15 PM41.0 °F14.0 °F33 %30.09 in10.0 miWSW (240°)5.8 mphClear
7:35 PM39.2 °F17.6 °F42 %30.11 in10.0 miWest (270°)3.5 mphClear
7:55 PM39.2 °F15.8 °F39 %30.11 in10.0 miWest (270°)3.5 mphClear
8:15 PM37.4 °F17.6 °F45 %30.11 in10.0 miWest (280°)3.5 mphClear
8:35 PM37.4 °F17.6 °F45 %30.11 in10.0 miWSW (250°)3.5 mphClear
8:55 PM37.4 °F17.6 °F45 %30.12 in10.0 miWSW (240°)4.6 mphClear
9:15 PM37.4 °F17.6 °F45 %30.13 in10.0 miWSW (250°)3.5 mphClear
9:35 PM37.4 °F17.6 °F45 %30.13 in10.0 miWSW (250°)3.5 mphClear
9:55 PM37.4 °F17.6 °F45 %30.13 in10.0 miSW (230°)8.1 mphClear
10:15 PM37.4 °F17.6 °F45 %30.13 in10.0 miWSW (240°)4.6 mphClear
10:35 PM37.4 °F17.6 °F45 %30.13 in10.0 miSW (230°)5.8 mphClear
10:55 PM37.4 °F17.6 °F45 %30.13 in10.0 miWSW (240°)5.8 mphClear
11:15 PM35.6 °F19.4 °F52 %30.13 in10.0 miWSW (240°)5.8 mphClear
11:35 PM35.6 °F19.4 °F52 %30.13 in10.0 miSW (230°)5.8 mphClear
11:55 PM37.4 °F17.6 °F45 %30.12 in10.0 miSW (220°)6.9 mphClear
Hourly data recorded from KCNI, located miles away from Ellijay, Georgia







STORIES FROM OUR PARTNERS